[[{"header":{"parameterUnit":"m.s-1","parameterCategory":1,"la1":30.2991,"la2":30.254,"lo1":-89.0895,"lo2":-89.0444,"dy":0.0017,"dx":0.0017,"nx":28,"ny":28,"refTime":"2023-09-07T03:00:00:Z","depth":0,"parameterNumber":2,"parameterNumberName":"U-component_of_WINDS"},"data":[0,0,0,0,0,0,0,0,0,0,0,0,0,0,0,0,0,0,0,0,0,0,0,0,0,0,0,0,0,0,0,0,0,0,0,0,0,0,0,0,0,0,0,0,0,0,0,0,0,0,0,0,0,0,0,0,0,0,1.6744,1.6745,0,1.675,1.675,1.675,1.6734,1.6734,1.6733,1.6733,1.6737,1.6738,1.6739,0,0,0,0,0,0,0,0,0,0,0,0,0,1.6717,1.6718,1.6744,1.6745,1.6745,1.675,1.675,1.675,1.6734,1.6734,1.6733,1.6732,1.6737,1.6738,1.6739,0,0,0,0,0,0,0,0,0,0,0,0,0,1.6727,1.6718,1.6744,1.6737,1.6737,1.675,1.675,1.675,1.6734,1.6734,1.6733,1.6732,1.6737,1.6738,1.6739,1.6759,0,0,1.6741,1.6742,0,0,0,0,0,0,0,0,1.6726,1.6728,1.6738,1.6738,1.6737,1.6741,1.6742,1.6753,1.6735,1.6735,1.6733,1.6732,1.6739,1.674,1.6742,1.6759,1.676,1.6741,1.6742,1.6742,1.6743,0,0,0,0,0,0,0,1.6726,1.6727,1.6747,1.6738,1.6738,1.6733,1.6734,1.6744,1.6741,1.6735,1.6734,1.6735,1.6739,1.6742,1.6742,1.676,1.6741,1.6742,1.6743,1.6743,1.6792,1.6793,0,0,0,0,0,0,1.6726,1.6727,1.6747,1.6747,1.673,1.6734,1.6735,1.674,1.6741,1.674,1.6736,1.6734,1.674,1.6741,1.6742,1.6765,1.6742,1.6743,1.6744,1.6792,1.6793,1.6793,0,0,0,0,0,0,1.6725,1.6728,1.6746,1.6737,1.6739,1.6735,1.6742,1.6741,1.6744,1.6741,1.6741,1.6739,1.674,1.6741,1.6755,1.6765,1.6744,1.6744,1.6791,1.6792,1.6793,1.6812,0,0,0,0,0,0,1.6725,1.6728,1.6736,1.6737,1.6739,1.6759,1.6743,1.6742,1.6746,1.6744,1.6745,1.6744,1.6739,1.6754,1.6756,1.6766,1.6745,1.679,1.6791,1.6793,1.6811,1.6814,1.6817,0,0,0,0,0,1.6724,1.6741,1.6737,1.6739,1.6749,1.676,1.6761,1.6756,1.6747,1.6754,1.6753,1.6744,1.6764,1.6755,1.6757,1.6768,1.6789,1.6791,1.6792,1.6809,1.6813,1.6817,0,0,0,0,0,0,1.6741,1.6741,1.6736,1.6754,1.6757,1.6757,1.6767,1.676,1.6766,1.6764,1.6756,1.6756,1.6771,1.6771,1.6761,1.6788,1.6775,1.6777,1.6787,1.6791,1.6794,1.6793,1.6746,0,0,0,0,0,1.6748,1.6757,1.6756,1.6772,1.6774,1.677,1.6774,1.677,1.6773,1.6774,1.6773,1.6775,1.6782,1.6786,1.6793,1.6811,1.681,1.6819,1.6822,1.6825,1.6827,1.6835,1.6839,1.6799,1.6799,1.6799,0,0,1.676,1.6761,1.6767,1.6775,1.6777,1.6786,1.6771,1.6781,1.6787,1.6775,1.6788,1.6787,1.6789,1.6805,1.6812,1.6806,1.6838,1.6827,1.6829,1.683,1.6837,1.6841,1.6845,1.68,1.68,1.68,0,0,1.6787,1.6789,1.6802,1.6804,1.6807,1.6805,1.6808,1.6809,1.6808,1.6821,1.6811,1.6818,1.683,1.6832,1.6834,1.6861,1.6853,1.6863,1.6879,1.6887,1.689,1.6893,1.6902,1.6905,1.6865,1.6865,1.6865,0,1.6802,1.6815,1.681,1.682,1.6824,1.6813,1.6826,1.6828,1.6833,1.6835,1.6828,1.6842,1.6843,1.6858,1.6865,1.6867,1.687,1.6863,1.6891,1.6893,1.6896,1.6904,1.6907,1.6866,1.6866,1.6866,1.6866,0,1.6832,1.6842,1.6852,1.6857,1.6861,1.6873,1.6869,1.6874,1.6869,1.6867,1.688,1.688,1.6886,1.6889,1.6885,1.6904,1.69,1.6892,1.6879,1.6901,1.6908,1.6911,1.6868,1.6868,1.6867,1.6867,0,0,1.687,1.6872,1.6875,1.6877,1.6879,1.6886,1.6897,1.6903,1.6907,1.691,1.6918,1.6929,1.6921,1.6924,1.6919,1.6927,1.6947,1.6918,1.6918,1.6922,1.6967,1.6972,1.6976,1.6942,1.6943,1.6943,1.6966,0,1.6895,1.6914,1.6909,1.6928,1.6936,1.6926,1.6935,1.6937,1.6935,1.6941,1.6939,1.6946,1.6937,1.6938,1.6945,1.6943,1.6956,1.6941,1.6948,1.6949,1.6947,1.698,1.6986,1.7007,1.6969,1.697,1.697,0,1.6928,1.6932,1.6951,1.6952,1.6955,1.6963,1.6968,1.6974,1.6976,1.6974,1.6977,1.6971,1.6981,1.6968,1.6981,1.6972,1.6974,1.6974,1.6974,1.6974,1.696,1.6979,1.7014,1.7017,1.6975,1.6974,1.6974,0,1.6951,1.6963,1.6975,1.6977,1.6978,1.6984,1.6985,1.6986,1.699,1.6994,1.6995,1.7001,1.7003,1.7007,1.7002,1.6993,1.7015,1.7002,1.7013,1.7013,1.7017,1.7017,1.7052,1.7021,1.7021,1.7021,1.702,0,1.6979,1.6991,1.6986,1.6994,1.7006,1.7001,1.7013,1.7013,1.7014,1.702,1.7013,1.7019,1.7013,1.7018,1.7014,1.7025,1.7027,1.7025,1.7023,1.7025,1.7025,1.7026,1.7024,1.7021,1.7021,1.7021,1.7021,0,1.7008,1.7005,1.7018,1.7018,1.7018,1.7027,1.7027,1.7033,1.7032,1.704,1.7042,1.7038,1.7045,1.704,1.7047,1.7044,1.7058,1.7055,1.7057,1.7056,1.7066,1.7065,1.7103,1.7107,1.7074,1.7074,1.7074,0,1.7025,1.7034,1.7035,1.7039,1.704,1.7047,1.7051,1.7046,1.705,1.7052,1.7058,1.7064,1.7068,1.7079,1.7076,1.7081,1.7077,1.709,1.7078,1.7079,1.7076,1.7075,1.7076,1.7092,1.7093,1.7093,1.7093,0,1.7056,1.7054,1.706,1.7065,1.707,1.7073,1.7076,1.708,1.7075,1.708,1.7086,1.7089,1.7096,1.7101,1.7105,1.7105,1.7098,1.7098,1.71,1.7101,1.7102,1.71,1.7063,1.7096,1.7096,1.7096,1.7096,1.7096,1.7079,1.7086,1.7087,1.7094,1.7096,1.7099,1.7105,1.7103,1.7109,1.7114,1.711,1.7118,1.7119,1.7123,1.7124,1.713,1.7124,1.7128,1.7129,1.713,1.7131,1.7102,1.713,1.713,1.713,1.713,1.713,0,1.7108,1.7109,1.7115,1.7119,1.7124,1.7118,1.7121,1.7125,1.7132,1.7134,1.7138,1.7145,1.7151,1.7149,1.7153,1.7158,1.7155,1.7159,1.7158,1.7158,1.7136,1.7133,1.7162,1.7162,1.7162,1.7162,1.7162,1.7162,1.7124,1.7135,1.7134,1.7145,1.7146,1.7153,1.7155,1.7158,1.7159,1.7167,1.7172,1.7171,1.7171,1.7176,1.718,1.7179,1.7181,1.7186,1.7184,1.7163,1.716,1.7157,1.7154,1.7187,1.7187,1.7206,1.7206,1.7206]},{"header":{"parameterUnit":"m.s-1","parameterCategory":1,"la1":30.2991,"la2":30.254,"lo1":-89.0895,"lo2":-89.0444,"dy":0.0017,"dx":0.0017,"nx":28,"ny":28,"refTime":"2023-09-07T03:00:00:Z","depth":0,"parameterNumber":3,"parameterNumberName":"V-component_of_WINDS"},"data":[0,0,0,0,0,0,0,0,0,0,0,0,0,0,0,0,0,0,0,0,0,0,0,0,0,0,0,0,0,0,0,0,0,0,0,0,0,0,0,0,0,0,0,0,0,0,0,0,0,0,0,0,0,0,0,0,0,0,5.788,5.7882,0,5.8048,5.805,5.8052,5.8007,5.8003,5.8,5.7997,5.8158,5.8165,5.8172,0,0,0,0,0,0,0,0,0,0,0,0,0,5.7507,5.7514,5.788,5.7882,5.7885,5.8048,5.805,5.8052,5.8007,5.8003,5.7999,5.7995,5.8155,5.8164,5.8173,0,0,0,0,0,0,0,0,0,0,0,0,0,5.7671,5.7516,5.788,5.7882,5.7884,5.8047,5.805,5.8053,5.8008,5.8003,5.7998,5.7993,5.8152,5.8163,5.8174,5.8342,0,0,5.8208,5.8213,0,0,0,0,0,0,0,0,5.7662,5.7685,5.788,5.7882,5.7885,5.8002,5.7977,5.815,5.8009,5.7961,5.7997,5.7991,5.8109,5.8123,5.8165,5.835,5.8357,5.8209,5.8216,5.822,5.8224,0,0,0,0,0,0,0,5.765,5.7677,5.7946,5.7882,5.7885,5.787,5.7888,5.801,5.806,5.7964,5.7962,5.7983,5.8109,5.8155,5.8169,5.8359,5.8209,5.8218,5.8225,5.823,5.8685,5.869,0,0,0,0,0,0,5.7639,5.7668,5.7941,5.7951,5.7759,5.788,5.79,5.7969,5.8059,5.8068,5.7987,5.798,5.8138,5.8156,5.8174,5.8376,5.822,5.8231,5.8237,5.868,5.8686,5.8692,0,0,0,0,0,0,5.7631,5.7664,5.7934,5.7809,5.7842,5.7892,5.7969,5.7975,5.8021,5.8076,5.8084,5.8025,5.8135,5.8159,5.8301,5.838,5.8236,5.8246,5.8673,5.8682,5.8689,5.8781,0,0,0,0,0,0,5.762,5.7661,5.773,5.7811,5.7849,5.8063,5.7974,5.7982,5.8041,5.8034,5.8114,5.8122,5.8133,5.8284,5.8312,5.8393,5.8254,5.8666,5.8677,5.8687,5.8771,5.8791,5.8808,0,0,0,0,0,5.7607,5.7747,5.7733,5.7766,5.7936,5.8067,5.8089,5.8102,5.8048,5.8114,5.8149,5.812,5.8367,5.8299,5.833,5.8416,5.8661,5.8674,5.8686,5.8762,5.8787,5.8808,0,0,0,0,0,0,5.7671,5.7758,5.7744,5.7915,5.7984,5.806,5.8145,5.8128,5.8211,5.8201,5.8209,5.8227,5.8372,5.8407,5.8331,5.8581,5.8506,5.8524,5.8553,5.8577,5.8595,5.8584,5.8264,0,0,0,0,0,5.7705,5.7809,5.7877,5.8021,5.8057,5.8095,5.8152,5.8156,5.8227,5.8255,5.83,5.8367,5.8459,5.8519,5.8608,5.8774,5.8789,5.8848,5.8866,5.8881,5.8898,5.8985,5.9011,5.8732,5.8732,5.8732,0,0,5.7777,5.7837,5.7901,5.8035,5.809,5.8192,5.812,5.8232,5.8307,5.8271,5.8409,5.8443,5.8517,5.8672,5.8742,5.8706,5.8978,5.8897,5.8909,5.8917,5.9,5.9027,5.905,5.8741,5.8739,5.8738,0,0,5.7959,5.8017,5.8142,5.8198,5.8282,5.8305,5.8334,5.8412,5.8435,5.8573,5.8548,5.8633,5.8793,5.8846,5.8894,5.9091,5.9066,5.9119,5.9217,5.9302,5.9324,5.9344,5.9412,5.9437,5.9135,5.9135,5.9135,0,5.8037,5.8195,5.8207,5.8322,5.838,5.8354,5.8477,5.8529,5.8636,5.8674,5.8632,5.883,5.8878,5.9043,5.9091,5.9131,5.9162,5.9111,5.9321,5.934,5.9359,5.9424,5.945,5.9141,5.914,5.914,5.9139,0,5.8284,5.8393,5.8483,5.8591,5.8658,5.8776,5.8802,5.8867,5.8863,5.8889,5.9028,5.9084,5.9182,5.922,5.9217,5.9384,5.9358,5.9319,5.9244,5.9391,5.9453,5.9478,5.9149,5.9147,5.9146,5.9144,0,0,5.8516,5.8626,5.8659,5.8705,5.8794,5.8876,5.8989,5.9088,5.9143,5.9215,5.9309,5.9442,5.9406,5.946,5.9461,5.9535,5.9685,5.9486,5.9487,5.952,5.9869,5.9899,5.9928,5.9668,5.9673,5.9677,5.9862,0,5.8705,5.8913,5.8925,5.911,5.9208,5.9182,5.928,5.9342,5.9368,5.9451,5.9477,5.9572,5.9517,5.9549,5.9621,5.9652,5.9755,5.9638,5.9752,5.9756,5.9736,5.9961,5.9994,6.0167,5.9887,5.9891,5.9894,0,5.8956,5.9039,5.9235,5.9307,5.9348,5.9438,5.9526,5.9608,5.9674,5.9687,5.9746,5.9736,5.9847,5.9767,5.9918,5.9839,5.9884,5.9906,5.9912,5.9924,5.9835,5.9978,6.0222,6.0248,5.9932,5.9929,5.9926,0,5.9104,5.9264,5.9402,5.9442,5.9529,5.9592,5.963,5.9692,5.9749,5.9825,5.9861,5.9947,5.9994,6.0059,6.007,6.0011,6.022,6.0142,6.0232,6.0231,6.0279,6.0276,6.0534,6.0308,6.0307,6.0307,6.0306,0,5.9316,5.9436,5.9469,5.9554,5.9686,5.9695,5.9824,5.9857,5.9912,5.9998,5.9979,6.0059,6.0069,6.015,6.0159,6.0281,6.0302,6.0313,6.0314,6.0316,6.0314,6.0347,6.0335,6.0314,6.0312,6.0311,6.031,0,5.9504,5.9532,5.9679,5.9749,5.9769,5.9863,5.992,5.9998,6.002,6.0129,6.0155,6.0189,6.0284,6.0301,6.0411,6.0416,6.0563,6.0551,6.0542,6.054,6.0629,6.062,6.0918,6.0956,6.0705,6.0707,6.0709,0,5.9638,5.9731,5.981,5.9869,5.9911,6.0004,6.0063,6.0073,6.0133,6.0214,6.0282,6.0375,6.045,6.0601,6.0633,6.0716,6.0706,6.0804,6.0719,6.0716,6.0707,6.0702,6.071,6.0821,6.0824,6.0826,6.0828,0,5.9872,5.988,5.9968,6.0059,6.0129,6.02,6.0267,6.0315,6.0333,6.0401,6.0499,6.0558,6.0671,6.0762,6.0844,6.0878,6.0855,6.0855,6.088,6.0883,6.0873,6.0879,6.0587,6.0848,6.0846,6.0845,6.0844,6.0843,6.0037,6.0117,6.0185,6.0281,6.0333,6.0395,6.0472,6.0504,6.0587,6.0683,6.0681,6.0788,6.0847,6.0956,6.0995,6.1075,6.1043,6.108,6.1089,6.1098,6.1106,6.086,6.1089,6.1089,6.1088,6.1088,6.1088,0,6.027,6.0312,6.04,6.0496,6.057,6.0544,6.0615,6.0678,6.0774,6.0832,6.0907,6.1017,6.1104,6.1142,6.1226,6.1283,6.1274,6.1305,6.1301,6.1309,6.113,6.11,6.131,6.131,6.131,6.131,6.131,6.131,6.04,6.0533,6.0548,6.0704,6.0743,6.0851,6.0894,6.0949,6.0996,6.1121,6.1195,6.1219,6.1268,6.1355,6.1432,6.1441,6.1472,6.1507,6.1511,6.1344,6.1321,6.13,6.1272,6.1514,6.1515,6.1682,6.1684,6.1685]}]]